Location: Écuvilly
(49.6505°N, 2.9206°E)
Time: 02:07:03
(UTC+00:00)

Cosmos 1190 Rocket - Pass Details

Date: 17 November 2025
Orbit: 752 x 775 km, 74.1° (Epoch: 13 December)

Event Time Altitude Azimuth Distance (km) Brightness Sun altitude
Rises 18:32:22 0° 210° (SSW) 3,241 7.7 -24.0°
Reaches altitude 10° 18:34:45 10° 213° (SSW) 2,319 6.9 -24.3°
Maximum altitude 18:40:00 68° 296° (WNW) 838 4.3 -25.2°
Enters shadow 18:42:26 32° 10° (N) 1,308 5.1 -25.6°
